AirNav   Everest Fuels
 
 545 users online  

2H0 Shelby County Airport
Shelbyville, Illinois, USA

GOING TO SHELBYVILLE?


FAA INFORMATION EFFECTIVE 05 DECEMBER 2019

Location

FAA Identifier: 2H0
Lat/Long: 39-24-40.6900N 088-50-43.8800W
39-24.678167N 088-50.731333W
39.4113028,-88.8455222
(estimated)
Elevation: 618.9 ft. / 188.6 m (surveyed)
Variation: 02W (2010)
From city: 3 miles W of SHELBYVILLE, IL
Time zone: UTC -6 (UTC -5 during Daylight Saving Time)
Zip code: 62565

Airport Operations

Airport use: Open to the public
Activation date: 11/1947
Control tower: no
ARTCC: KANSAS CITY CENTER
FSS: SAINT LOUIS FLIGHT SERVICE STATION
NOTAMs facility: STL (NOTAM-D service available)
Attendance: 0800-DUSK
Pattern altitude: 1418.9 ft. MSL
Wind indicator: lighted
Segmented circle: no
Lights: ACTVT PAPI RWY 36 - CTAF.
Beacon: white-green (lighted land airport)
Operates sunset to sunrise.

Airport Communications

CTAF/UNICOM: 122.8
  • APCH/DEP SVC PRVDD BY KANSAS CITY ARTCC ON FREQS 124.3/269.15 (DECATUR RCAG).

Nearby radio navigation aids

VOR radial/distance  VOR name  Freq  Var
AXCr176/19.6ADDERS VORTAC117.2003E
VLAr034/24.1VANDALIA VORTAC114.3004E
BIBr327/34.0BIBLE GROVE VORTAC109.0003E

 
NDB name  Hdg/Dist  Freq  Var  ID
SHELBYVILLEat field36502WSYZ ... -.-- --..

Airport Services

Fuel available: 100LL JET-A+
SELF SVC FUEL AVBL 24 HRS WITH CREDIT CARD.
Parking: hangars and tiedowns
Airframe service: MAJOR
Powerplant service: MAJOR
Bottled oxygen: NONE
Bulk oxygen: NONE

Runway Information

Runway 18/36

Dimensions: 4098 x 75 ft. / 1249 x 23 m
Surface: asphalt/porous friction courses, in good condition
Weight bearing capacity: 
Single wheel: 4.0
Runway edge lights: medium intensity
Runway edge markings: MARKINGS RWY 18-36 FADED
RUNWAY 18  RUNWAY 36
Latitude: 39-25.095878N39-24.420897N
Longitude: 088-50.853115W088-50.847975W
Elevation: 618.4 ft.618.5 ft.
Traffic pattern: leftleft
Runway heading: 182 magnetic, 180 true002 magnetic, 360 true
Markings: nonprecision, in poor conditionnonprecision, in poor condition
Visual slope indicator: 2-light PAPI on left (4.00 degrees glide path)
Runway end identifier lights: nono
Touchdown point: yes, no lightsyes, no lights
Obstructions: none55 ft. tree, 1265 ft. from runway, 330 ft. left of centerline, 15:1 slope to clear

Runway 14/32

Dimensions: 2336 x 180 ft. / 712 x 55 m
Surface: turf, in good condition
RUNWAY 14  RUNWAY 32
Latitude: 39-24.714563N39-24.421200N
Longitude: 088-50.770798W088-50.449810W
Elevation: 617.0 ft.612.9 ft.
Traffic pattern: leftleft
Runway heading: 142 magnetic, 140 true322 magnetic, 320 true
Markings: nonenone
Runway end identifier lights: nono
Touchdown point: yes, no lightsyes, no lights
Obstructions: none46 ft. tree, 726 ft. from runway, 140 ft. left of centerline, 16:1 slope to clear
APCH RATIO 20:1 TO DSPLCD THLD; 33 FT ANT 665 FT FM DSPLCD THLD 179 FT L OF CNTRLN.

Runway 4/22

Dimensions: 1446 x 180 ft. / 441 x 55 m
Surface: turf, in good condition
RUNWAY 4  RUNWAY 22
Latitude: 39-24.537782N39-24.720210N
Longitude: 088-50.687613W088-50.490192W
Elevation: 615.2 ft.612.8 ft.
Traffic pattern: leftleft
Runway heading: 042 magnetic, 040 true222 magnetic, 220 true
Markings: nonenone
Runway end identifier lights: nono
Touchdown point: yes, no lightsyes, no lights

Airport Ownership and Management from official FAA records

Ownership: Publicly-owned
Owner: SHELBY CO ARPT & LNDG CMSN.
PO BOX 174
ASSUMPTION, IL 62510
Phone 217-774-5111
Manager: SCOTT JEFSON
1147 N 1915 EAST ROAD
SHELBYVILLE, IL 62565
Phone 217-774-5111
ALTERNATE PHONE NUMBER: 217-827-1196

Airport Operational Statistics

Aircraft based on the field: 21
Single engine airplanes: 20
Ultralights: 1
    
Aircraft operations: avg 44/day *
55% local general aviation
42% transient general aviation
3% military
* for 12-month period ending 31 August 2019

Additional Remarks

BOUNDARIES FOR RYS 4/22 & 14/32 ARE MARKED WITH WHITE PAINTED TIRES SPACED AT 400 FT INTERVALS.
RY 4 RELOCATED THLD NE OF TWYS. NEW RY LENGTHS PENDING RY 4/22.
WHEN ARPT UNATNDD, PHONE NR FOR ASSISTANCE POSTED ON FBO DOORS.
FOR CD CTC KANSAS CITY ARTCC AT 913-254-8508.

Instrument Procedures

NOTE: All procedures below are presented as PDF files. If you need a reader for these files, you should download the free Adobe Reader.

NOT FOR NAVIGATION. Please procure official charts for flight.
FAA instrument procedures published for use from 05 December 2019 at 0900Z to 02 January 2020 at 0900Z.

 
IAPs - Instrument Approach Procedures
RNAV (GPS) RWY 36   download (216KB)
NDB-A   download (166KB)
NOTE: Special Take-Off Minimums/Departure Procedures apply   download (201KB)

Other nearby airports with instrument procedures:

KTAZ - Taylorville Municipal Airport (24 nm W)
1H2 - Effingham County Memorial Airport (25 nm SE)
KDEC - Decatur Airport (25 nm N)
KMTO - Coles County Memorial Airport (27 nm E)
KVLA - Vandalia Municipal Airport (29 nm SW)
 
Loc | Ops | Rwys | IFR | FBO | Links
Com | Nav | Svcs | Stats | Notes
Area around 2H0 (Shelby County Airport)
 
Road maps at: MapQuest Bing Google
 
Aerial photo
WARNING: Photo may not be current or correct
Aerial photo of 2H0 (Shelby County Airport)
Do you have a better or more recent aerial photo of Shelby County Airport that you would like to share? If so, please send us your photo.

 
Sectional chart

 
Airport distance calculator
Flying to Shelby County Airport? Find the distance to fly.

From to 2H0

Sunrise and sunset
Times for 11-Dec-2019
 Local
(UTC-6)
 Zulu
(UTC)
Morning civil twilight06:3612:36
Sunrise07:0613:06
Sunset16:3122:31
Evening civil twilight17:0123:01

Current date and time
Zulu (UTC)  11-Dec-2019 12:00:36
Local (UTC-6)  11-Dec-2019 06:00:36
 
METAR
KTAZ 
24nm W 
111135Z AUTO 00000KT 10SM SCT110 M07/M09 A3036 RMK AO2 T10731090
K1H2 
25nm SE 
111135Z AUTO 13003KT 10SM CLR M08/M12 A3040 RMK AO2 T10791117
KDEC 
25nm N 
111154Z 00000KT 10SM FEW120 M07/M09 A3037 RMK AO2 SLP293 T10721094 11061 21089 56010
KMTO 
27nm E 
111153Z AUTO 17004KT 9SM CLR M07/M09 A3035 RMK AO2 SLP288 T10721094 11044 21089 58010
K3LF 
41nm W 
111155Z AUTO 19006KT 10SM CLR M07/M09 A3038 RMK AO2 T10751088
KCMI 
46nm NE 
111153Z 21007KT 10SM FEW110 M08/M11 A3037 RMK AO2 SLP297 T10831106 11067 21106 55005
KSLO 
46nm S 
111135Z AUTO 00000KT 10SM CLR M06/M07 A3041 RMK AO2 T10611073
KSPI 
47nm NW 
111152Z 17004KT 10SM SCT095 M07/M11 A3036 RMK AO2 SLP288 T10721106 11061 21089 56013
TAF
KDEC 
25nm N 
110520Z 1106/1206 23006KT P6SM BKN040 FM111200 22005KT P6SM BKN045 FM112000 VRB04KT P6SM FEW100
NOTAMs
Click for the latest NOTAMs
NOTAMs are issued by the DoD/FAA and will open in a separate window not controlled by AirNav.

 

 
 

FBO, Fuel Providers, and Aircraft Ground Support

  
 Business Name 
 
 Contact 
 
 Services / Description 
 
Fuel Prices
 
Comments
  
Shelby County 217-774-5111
no information available

If you are affiliated with Shelby County and would like to show here your services, contact info, web link, logo, and more, click here
100LL Jet A
SS $4.45 $3.85 
 Updated 29-Nov-2019
 
   3 read write
SS=Self service
Update Fuel Prices
 

Would you like to see your business listed on this page?

 If your business provides an interesting product or service to pilots, flight crews, aircraft, or users of the Shelby County Airport, you should consider listing it here.  To start the listing process, click on the button below
 
Add a business
 

Other Pages about Shelby County Airport

Update a link
 
Copyright © AirNav, LLC. All rights reserved. Privacy Policy  Contact